This demonstration page uses our WeatherBlox Daily Observations layout. Learn more.

Left ArrowRight Arrow

Hourly Observations for December 10, 2016

Temp ( °F °C ) Dew Point ( °F °C ) Humidity (%) Winds ( mph kmh ) Pressure ( in mb ) Visibility ( mi km ) Precip ( " mm )
12:53 am 00:53 Partly Cloudy 2 -16.7 -2 -18.9 83 83 E 12 19 30.26 1025 10 16 0.00 0.00
1:53 am 01:53 Mostly Cloudy 2 -16.7 -2 -18.9 83 83 ENE 10 17 30.22 1024 10 16 0.00 0.00
2:53 am 02:53 Cloudy 3 -16.1 -1 -18.3 83 83 E 10 17 30.20 1023 10 16 0.00 0.00
3:53 am 03:53 Cloudy with Light Snow 3 -16.1 -1 -18.3 83 83 E 10 17 30.16 1021 3 4 0.00 0.03
4:04 am 04:04 Cloudy with Light Snow 3 -16 0 -18 85 85 ENE 13 20 30.27 1025 2 3 0.00 0.00
4:24 am 04:24 Cloudy with Light Snow 3 -16 0 -18 85 85 ENE 12 19 30.27 1025 4 6 0.00 0.00
4:33 am 04:33 Cloudy with Light Snow 3 -16.1 -1 -18.3 83 83 ENE 10 17 30.27 1025 6 10 0.01 0.25
4:53 am 04:53 Cloudy 4 -15.6 0 -17.8 83 83 E 12 19 30.13 1020 10 16 0.01 0.25
5:13 am 05:13 Cloudy with Light Snow 3 -16.1 0 -17.8 87 87 E 9 15 30.24 1024 3 4 0.00 0.03
5:35 am 05:35 Cloudy with Light Snow 4 -15.6 0 -17.8 83 83 ENE 10 17 30.24 1024 3 5 0.01 0.25
5:53 am 05:53 Cloudy with Light Snow 4 -15.6 0 -17.8 83 83 ENE 10 17 30.11 1020 4 6 0.01 0.25
6:05 am 06:05 Cloudy with Light Snow 4 -15.6 0 -17.8 83 83 ENE 10 17 30.24 1024 3 4 0.00 0.03
6:13 am 06:13 Cloudy with Light Snow 4 -15.6 0 -17.8 83 83 ENE 13 20 30.24 1024 5 8 0.00 0.03
6:53 am 06:53 Cloudy 4 -15.6 0 -17.8 83 83 ENE 12 19 30.09 1019 10 16 0.00 0.03
7:53 am 07:53 Cloudy 3 -16.1 -1 -18.3 83 83 E 14 22 30.06 1018 10 16 0.00 0.00
8:53 am 08:53 Cloudy 5 -15 1 -17.2 83 83 E 16 26 30.03 1017 10 16 0.00 0.00
9:53 am 09:53 Cloudy 6 -14.4 1 -17.2 79 79 E 17 28 29.99 1016 10 16 0.00 0.00
10:53 am 10:53 Cloudy with Light Snow 6 -14.4 1 -17.2 79 79 ENE 14 22 30.00 1016 5 8 0.00 0.03
11:10 am 11:10 Cloudy with Light Snow 7 -14 1 -17 78 78 ENE 18 30 30.03 1017 2 3 0.00 0.00
11:17 am 11:17 Cloudy with Light Snow 6 -14.4 1 -17.2 79 79 E 17 28 30.06 1018 2 3 0.00 0.03
11:26 am 11:26 Cloudy with Light Snow 7 -14 1 -17 78 78 E 16 26 30.03 1017 2 3 0.00 0.00
11:53 am 11:53 Cloudy with Light Snow 6 -14.4 1 -17.2 79 79 E 15 24 29.95 1014 2 3 0.00 0.03
11:59 am 11:59 Cloudy with Light Snow 5 -15 1 -17.2 83 83 ENE 15 24 30.03 1017 1 2 0.00 0.03
12:28 pm 12:28 Mostly Cloudy with Light Snow 7 -14 1 -17 78 78 E 12 19 30.00 1016 1 1 0.00 0.00
12:37 pm 12:37 Mostly Cloudy with Snow 5 -15 1 -17.2 83 83 E 16 26 30.03 1017 1 1 0.02 0.51
12:53 pm 12:53 Mostly Cloudy with Snow 6 -14.4 2 -16.7 83 83 E 9 15 29.94 1014 1 1 0.03 0.76
1:12 pm 13:12 Mostly Cloudy with Snow 7 -14 1 -17 78 78 E 14 22 29.97 1015 0 0 0.00 0.00
1:31 pm 13:31 Mostly Cloudy with Snow 6 -14.4 2 -16.7 83 83 E 13 20 30.00 1016 1 1 0.03 0.76
1:40 pm 13:40 Mostly Cloudy with Light Snow 7 -14 1 -17 78 78 E 13 20 30.00 1016 1 2 0.00 0.00
1:48 pm 13:48 Mostly Cloudy with Light Snow 7 -14 1 -17 78 78 E 9 15 30.00 1016 1 1 0.00 0.00
1:53 pm 13:53 Mostly Cloudy with Snow 6 -14.4 2 -16.7 83 83 ENE 8 13 29.96 1014 1 1 0.05 1.27
2:11 pm 14:11 Mostly Cloudy with Snow 6 -14.4 2 -16.7 83 83 ENE 9 15 30.00 1016 1 1 0.02 0.51
2:21 pm 14:21 Cloudy with Light Snow 6 -14.4 2 -16.7 83 83 NE 9 15 30.00 1016 2 2 0.02 0.51
2:27 pm 14:27 Cloudy with Light Snow 6 -14.4 2 -16.7 83 83 NE 8 13 30.00 1016 3 5 0.02 0.51
2:53 pm 14:53 Cloudy 6 -14.4 2 -16.7 83 83 ENE 8 13 29.96 1014 10 16 0.02 0.51
3:53 pm 15:53 Cloudy 6 -14.4 1 -17.2 79 79 N 5 7 29.99 1016 10 16 0.00 0.00
4:53 pm 16:53 Cloudy with Light Snow 5 -15 0 -17.8 79 79 NW 5 7 30.01 1016 5 8 0.00 0.03
5:19 pm 17:19 Cloudy with Light Snow 5 -15 1 -17.2 83 83 WNW 3 6 30.12 1020 3 4 0.00 0.03
5:28 pm 17:28 Cloudy with Light Snow 5 -15 1 -17 85 85 W 3 6 30.12 1020 4 6 0.00 0.00
5:53 pm 17:53 Cloudy with Light Snow 3 -16.1 0 -17.8 87 87 W 5 7 30.02 1017 5 8 0.00 0.03
6:53 pm 18:53 Cloudy 2 -16.7 -1 -18.3 88 88 WSW 3 6 30.04 1017 10 16 0.00 0.03
7:53 pm 19:53 Mostly Cloudy 1 -17.2 -2 -18.9 87 87 WSW 7 11 30.05 1018 10 16 0.00 0.00
8:53 pm 20:53 Mostly Cloudy -4 -20 -7 -21.7 86 86 SW 9 15 30.06 1018 10 16 0.00 0.00
9:53 pm 21:53 Clear -8 -22.2 -11 -23.9 86 86 SW 9 15 30.09 1019 10 16 0.00 0.00
10:53 pm 22:53 Clear -9 -22.8 -12 -24.4 87 87 WSW 9 15 30.11 1020 10 16 0.00 0.00
11:53 pm 23:53 Clear -9 -22.8 -13 -25 82 82 Calm 30.13 1020 10 16 0.00 0.00

Powered by AerisWeather